St. Marys, AK

9:04 AM AKDT on June 29, 2017 (GMT -0800)
Saint Mary's

Weather History for PASM - June, 2013

Change the Weather History Date:

Tuesday, June 11, 2013

  Actual Average Record
Temperature  
Mean Temperature 48 °F -  
Max Temperature 62 °F 57 °F 69 °F (2007)
Min Temperature 35 °F 40 °F 32 °F (2015)
Degree Days  
Heating Degree Days 16    
Moisture  
Dew Point 37 °F    
Average Humidity 71    
Maximum Humidity 100    
Minimum Humidity 39    
Precipitation  
Precipitation 0.00 in - - ()
Sea Level Pressure  
Sea Level Pressure 30.32 in    
Wind  
Wind Speed 7 mph (NNW)    
Max Wind Speed 14 mph    
Max Gust Speed 17 mph    
Visibility 7 miles    
Events      
Averages and records for this station are not official NWS values.
T = Trace of Precipitation, MM = Missing Value Source: NWS Daily Summary

Daily Weather History Graph

Daily Weather History Graph

Search for Another Location

Airport or City:

Trip Planner

Search our weather history database for the weather conditions in past years. The results will help you decide how hot, cold, wet, or windy it might be!

Date:

Astronomy

Jun. 11, 2013 Rise Set
Actual Time 5:04 AM AKDT 12:41 AM AKDT
Civil Twilight 3:25 AM AKDT 2:20 AM AKDT
Nautical Twilight Sun does not set Sun does not set
Astronomical Twilight Sun does not set Sun does not set
Moon 8:57 AM AKDT (6/11) 1:21 AM AKDT (6/11)
Length of Visible Light 22h 55m
Length of Day
19h 36m
Waxing Crescent, 9% of the Moon is Illuminated
Jun 11
Waxing Crescent
Jun 16
First Quarter
Jun 23
Full
Jun 29
Last Quarter
Jul 7
New

Hourly Weather History & Observations

Time (AKDT) Temp. Windchill Dew Point Humidity Pressure Visibility Wind Dir Wind Speed Gust Speed Precip Events Conditions
12:16 AM 42.8 °F 38.0 °F 35.6 °F 76% 30.43 in 10.0 mi WNW 8.1 mph - N/A   Clear
12:36 AM 42.8 °F 38.0 °F 35.6 °F 76% 30.43 in 10.0 mi WNW 8.1 mph - N/A   Clear
12:56 AM 41.0 °F 35.8 °F 35.6 °F 81% 30.43 in 10.0 mi NW 8.1 mph - N/A   Clear
1:16 AM 39.2 °F 34.2 °F 33.8 °F 81% 30.43 in 10.0 mi NW 6.9 mph - N/A   Clear
1:36 AM 39.2 °F 34.2 °F 33.8 °F 81% 30.43 in 10.0 mi NW 6.9 mph - N/A   Clear
1:56 AM 37.4 °F 32.1 °F 33.8 °F 87% 30.42 in 10.0 mi NW 6.9 mph - N/A   Clear
2:16 AM 37.4 °F 32.1 °F 33.8 °F 87% 30.42 in 10.0 mi NW 6.9 mph - N/A   Clear
2:36 AM 37.4 °F 31.4 °F 32.0 °F 81% 30.42 in 10.0 mi NW 8.1 mph - N/A   Clear
2:56 AM 35.6 °F 29.9 °F 32.0 °F 87% 30.42 in 10.0 mi NW 6.9 mph - N/A   Clear
3:16 AM 35.6 °F 29.9 °F 32.0 °F 87% 30.42 in 1.2 mi NW 6.9 mph - N/A   Mostly Cloudy
3:36 AM 35.6 °F 31.7 °F 32.0 °F 87% 30.42 in 1.5 mi NNW 4.6 mph - N/A   Overcast
3:56 AM 37.4 °F 33.8 °F 33.8 °F 87% 30.41 in 0.8 mi NNW 4.6 mph - N/A   Overcast
4:16 AM 37.4 °F 34.9 °F 33.8 °F 87% 30.41 in 0.5 mi North 3.5 mph - N/A   Overcast
4:36 AM 37.4 °F 34.9 °F 33.8 °F 87% 30.41 in 0.5 mi North 3.5 mph - N/A   Overcast
4:56 AM 35.6 °F - 35.6 °F 100% 30.41 in 0.2 mi Calm Calm - N/A   Overcast
5:16 AM 35.6 °F - 35.6 °F 100% 30.40 in 0.2 mi Calm Calm - N/A   Overcast
5:36 AM 35.6 °F 32.8 °F 35.6 °F 100% 30.40 in 0.2 mi NNE 3.5 mph - N/A   Overcast
5:56 AM 35.6 °F - 35.6 °F 100% 30.40 in 0.2 mi Calm Calm - N/A   Overcast
6:16 AM 35.6 °F 32.8 °F 35.6 °F 100% 30.40 in 0.2 mi NNE 3.5 mph - N/A   Overcast
6:36 AM 37.4 °F - 35.6 °F 93% 30.39 in 0.2 mi Calm Calm - N/A   Overcast
6:56 AM 37.4 °F 33.8 °F 35.6 °F 93% 30.39 in 0.2 mi North 4.6 mph - N/A   Overcast
7:16 AM 37.4 °F 32.8 °F 33.8 °F 87% 30.39 in 0.2 mi North 5.8 mph - N/A   Overcast
7:36 AM 37.4 °F 32.1 °F 33.8 °F 87% 30.39 in 0.2 mi NNW 6.9 mph - N/A   Overcast
7:56 AM 37.4 °F 32.8 °F 33.8 °F 87% 30.38 in 0.2 mi NNW 5.8 mph - N/A   Overcast
8:16 AM 37.4 °F 32.1 °F 33.8 °F 87% 30.38 in 0.2 mi North 6.9 mph - N/A   Overcast
8:36 AM 37.4 °F 32.1 °F 33.8 °F 87% 30.38 in 0.2 mi North 6.9 mph - N/A   Overcast
8:56 AM 37.4 °F 32.8 °F 33.8 °F 87% 30.37 in 0.2 mi NNW 5.8 mph - N/A   Overcast
9:16 AM 37.4 °F 33.8 °F 37.4 °F 100% 30.37 in 0.2 mi North 4.6 mph - N/A   Overcast
9:36 AM 37.4 °F 32.8 °F 35.6 °F 93% 30.37 in 0.2 mi North 5.8 mph - N/A   Overcast
9:56 AM 37.4 °F 33.8 °F 37.4 °F 100% 30.36 in 0.2 mi North 4.6 mph - N/A   Overcast
10:16 AM 39.2 °F 35.9 °F 35.6 °F 87% 30.36 in 0.5 mi NNW 4.6 mph - N/A   Overcast
10:36 AM 39.2 °F 35.0 °F 35.6 °F 87% 30.36 in 0.8 mi North 5.8 mph - N/A   Overcast
10:56 AM 39.2 °F 35.9 °F 37.4 °F 93% 30.35 in 1.2 mi North 4.6 mph - N/A   Overcast
11:16 AM 39.2 °F 35.0 °F 37.4 °F 93% 30.35 in 10.0 mi North 5.8 mph - N/A   Overcast
11:36 AM 41.0 °F 39.0 °F 37.4 °F 87% 30.34 in 10.0 mi North 3.5 mph - N/A   Overcast
11:56 AM 44.6 °F 43.1 °F 39.2 °F 81% 30.34 in 10.0 mi NNW 3.5 mph - N/A   Overcast
12:16 PM 46.4 °F - 39.2 °F 76% 30.34 in 10.0 mi Calm Calm - N/A   Scattered Clouds
12:36 PM 48.2 °F - 39.2 °F 71% 30.33 in 10.0 mi NNW 4.6 mph - N/A   Clear
12:56 PM 48.2 °F - 39.2 °F 71% 30.33 in 10.0 mi West 6.9 mph - N/A   Clear
1:16 PM 50.0 °F - 39.2 °F 66% 30.32 in 10.0 mi West 6.9 mph - N/A   Clear
1:36 PM 51.8 °F - 39.2 °F 62% 30.31 in 10.0 mi WNW 6.9 mph - N/A   Clear
1:56 PM 51.8 °F - 39.2 °F 62% 30.31 in 10.0 mi West 8.1 mph - N/A   Clear
2:16 PM 53.6 °F - 39.2 °F 58% 30.30 in 10.0 mi WSW 8.1 mph - N/A   Clear
2:36 PM 55.4 °F - 39.2 °F 54% 30.30 in 10.0 mi West 8.1 mph - N/A   Clear
2:56 PM 55.4 °F - 39.2 °F 54% 30.29 in 10.0 mi West 6.9 mph - N/A   Clear
3:16 PM 55.4 °F - 39.2 °F 54% 30.29 in 10.0 mi West 11.5 mph - N/A   Clear
3:36 PM 55.4 °F - 39.2 °F 54% 30.28 in 10.0 mi West 10.4 mph - N/A   Clear
3:56 PM 57.2 °F - 39.2 °F 51% 30.27 in 10.0 mi WSW 11.5 mph - N/A   Clear
4:16 PM 57.2 °F - 39.2 °F 51% 30.27 in 10.0 mi WSW 12.7 mph - N/A   Clear
4:36 PM 57.2 °F - 39.2 °F 51% 30.25 in 10.0 mi WSW 12.7 mph - N/A   Clear
4:56 PM 60.8 °F - 41.0 °F 48% 30.25 in 10.0 mi NNW 8.1 mph - N/A   Clear
5:16 PM 62.6 °F - 39.2 °F 42% 30.24 in 10.0 mi NNW 9.2 mph - N/A   Clear
5:36 PM 62.6 °F - 39.2 °F 42% 30.24 in 10.0 mi NNW 10.4 mph - N/A   Clear
5:56 PM 62.6 °F - 39.2 °F 42% 30.23 in 10.0 mi NNW 11.5 mph - N/A   Clear
6:16 PM 62.6 °F - 37.4 °F 39% 30.23 in 10.0 mi NNW 12.7 mph 17.3 mph N/A   Clear
6:36 PM 62.6 °F - 37.4 °F 39% 30.22 in 10.0 mi NNW 11.5 mph - N/A   Clear
6:56 PM 62.6 °F - 37.4 °F 39% 30.22 in 10.0 mi NNW 10.4 mph - N/A   Clear
7:16 PM 62.6 °F - 37.4 °F 39% 30.22 in 10.0 mi North 12.7 mph 17.3 mph N/A   Clear
7:36 PM 60.8 °F - 37.4 °F 42% 30.21 in 10.0 mi NNW 11.5 mph - N/A   Clear
7:56 PM 60.8 °F - 37.4 °F 42% 30.20 in 10.0 mi North 8.1 mph - N/A   Clear
8:16 PM 60.8 °F - 37.4 °F 42% 30.20 in 10.0 mi NNW 12.7 mph - N/A   Clear
8:36 PM 59.0 °F - 37.4 °F 45% 30.20 in 10.0 mi North 13.8 mph - N/A   Clear
8:56 PM 59.0 °F - 37.4 °F 45% 30.19 in 10.0 mi North 11.5 mph - N/A   Clear
9:16 PM 57.2 °F - 37.4 °F 48% 30.18 in 10.0 mi North 12.7 mph - N/A   Clear
9:56 PM 55.4 °F - 37.4 °F 51% 30.17 in 10.0 mi North 6.9 mph - N/A   Clear
10:16 PM 55.4 °F - 37.4 °F 51% 30.17 in 10.0 mi NNE 8.1 mph - N/A   Clear
10:36 PM 55.4 °F - 39.2 °F 54% 30.17 in 10.0 mi NNE 6.9 mph - N/A   Clear
10:56 PM 53.6 °F - 39.2 °F 58% 30.16 in 10.0 mi North 4.6 mph - N/A   Clear
11:16 PM 51.8 °F - 39.2 °F 62% 30.16 in 10.0 mi NNE 4.6 mph - N/A   Clear
11:36 PM 50.0 °F - 37.4 °F 62% 30.16 in 10.0 mi NE 4.6 mph - N/A   Clear
11:56 PM 48.2 °F - 37.4 °F 66% 30.15 in 10.0 mi NE 5.8 mph - N/A   Clear